Location: Hohenfelde
(53.8441°N, 9.6220°E)
Time: 12:33:12
(UTC+00:00)

Cosmos 1833 Rocket - Pass Details

Date: 14 July 2020
Orbit: 832 x 840 km, 71.0° (Epoch: 12 August)

Event Time Altitude Azimuth Distance (km) Brightness Sun altitude
Exits shadow 00:44:53 11° 163° (SSE) 2,349 4.5 -12.7°
Maximum altitude 00:49:23 30° 106° (ESE) 1,462 4.0 -12.5°
Drops below altitude 10° 00:54:11 10° 47° (NE) 2,455 6.2 -12.2°
Sets 00:56:53 0° 37° (NE) 3,395 7.5 -12.1°
